This demonstration page uses our WeatherBlox Daily Observations layout. Learn more.

39.08367, -84.50855

Hourly Observations for October 4, 2019

Temp ( °F °C ) Dew Point ( °F °C ) Humidity (%) Winds ( mph kmh ) Pressure ( in mb ) Visibility ( mi km ) Precip ( " mm )
12:53 am 00:53 Clear 67 19.4 56 13.3 68 68 N 14 22 30.13 1020 10 16.0934 0 0
1:53 am 01:53 Clear 64 17.8 54 12.2 70 70 N 10 17 30.16 1021 10 16.0934 0 0
2:53 am 02:53 Partly Cloudy 62 16.7 53 11.7 73 73 N 7 11 30.18 1022 10 16.0934 0 0
3:42 am 03:42 Mostly Cloudy 61 16.1 52 11.1 72 72 undefined N/A 30.2 1023 10 16.0934 0 0
3:53 am 03:53 Cloudy 61 16.1 52 11.1 72 72 undefined N/A 30.19 1022 10 16.0934 0 0
4:35 am 04:35 Partly Cloudy 60 15.6 48 8.9 65 65 NNE 12 19 30.22 1023 10 16.0934 0 0
4:53 am 04:53 Clear 59 15 47 8.3 64 64 NNE 12 19 30.22 1023 10 16.0934 0 0
5:53 am 05:53 Clear 58 14.4 47 8.3 67 67 NNE 8 13 30.23 1024 10 16.0934 0 0
6:53 am 06:53 Clear 56 13.3 44 6.7 65 65 NNE 9 15 30.25 1025 10 16.0934 0 0
7:53 am 07:53 Sunny 54 12.2 44 6.7 69 69 NE 7 11 30.28 1025 10 16.0934 0 0
8:53 am 08:53 Sunny 57 13.9 45 7.2 64 64 NE 8 13 30.3 1026 10 16.0934 0 0
9:53 am 09:53 Partly Cloudy 60 15.6 46 7.8 60 60 ENE 12 19 30.3 1026 10 16.0934 0 0
10:53 am 10:53 Mostly Sunny 63 17.2 46 7.8 54 54 NNE 10 17 30.3 1026 10 16.0934 0 0
11:53 am 11:53 Mostly Sunny 65 18.3 45 7.2 49 49 NNE 10 17 30.29 1026 10 16.0934 0 0
12:53 pm 12:53 Sunny 68 20 46 7.8 45 45 NNE 10 17 30.29 1026 10 16.0934 0 0
1:53 pm 13:53 Sunny 69 20.6 45 7.2 42 42 NNE 13 20 30.27 1025 10 16.0934 0 0
2:53 pm 14:53 Sunny 70 21.1 45 7.2 41 41 NNE 12 19 30.25 1024 10 16.0934 0 0
3:53 pm 15:53 Sunny 71 21.7 45 7.2 39 39 ENE 6 9 30.23 1024 10 16.0934 0 0
4:53 pm 16:53 Sunny 71 21.7 45 7.2 39 39 N 8 13 30.22 1024 10 16.0934 0 0
5:53 pm 17:53 Sunny 70 21.1 45 7.2 41 41 NE 10 17 30.23 1024 10 16.0934 0 0
6:53 pm 18:53 Sunny 67 19.4 45 7.2 45 45 NNE 8 13 30.23 1024 10 16.0934 0 0
7:53 pm 19:53 Clear 63 17.2 46 7.8 54 54 NE 10 17 30.24 1024 10 16.0934 0 0
8:53 pm 20:53 Clear 59 15 46 7.8 62 62 ENE 5 7 30.25 1025 10 16.0934 0 0
9:53 pm 21:53 Clear 57 13.9 46 7.8 67 67 NE 8 13 30.27 1025 10 16.0934 0 0
10:53 pm 22:53 Clear 57 13.9 47 8.3 69 69 NE 9 15 30.27 1025 10 16.0934 0 0
11:53 pm 23:53 Clear 56 13.3 47 8.3 72 72 NE 10 17 30.28 1025 10 16.0934 0 0

Powered by AerisWeather